TimeAKDT,TemperatureF,Dew PointF,Humidity,Sea Level PressureIn,VisibilityMPH,Wind Direction,Wind SpeedMPH,Gust SpeedMPH,PrecipitationIn,Events,Conditions,WindDirDegrees,DateUTC
12:53 AM,-13.0,-18.9,75,30.25,7.0,NNE,12.7,-,N/A,,Scattered Clouds,30,2013-03-22 08:53:00
1:42 AM,-14.8,-18.4,84,30.25,2.0,NE,6.9,-,0.00,Snow,Light Snow,50,2013-03-22 09:42:00
1:51 AM,-16.6,-23.8,70,30.25,3.0,NE,8.1,-,0.00,Snow,Light Snow,50,2013-03-22 09:51:00
1:53 AM,-17.0,-23.1,74,30.25,3.0,NE,8.1,-,0.00,Snow,Light Snow,50,2013-03-22 09:53:00
2:11 AM,-16.6,-22.0,76,30.25,5.0,NE,4.6,-,0.00,Rain,Light Freezing Rain,40,2013-03-22 10:11:00
2:30 AM,-16.6,-23.8,70,30.25,10.0,NNE,3.5,-,0.00,,Overcast,30,2013-03-22 10:30:00
2:53 AM,-16.1,-23.1,71,30.25,8.0,NNE,8.1,-,0.00,,Overcast,30,2013-03-22 10:53:00
3:53 AM,-18.9,-24.0,78,30.25,10.0,NE,4.6,-,0.00,,Mostly Cloudy,50,2013-03-22 11:53:00
4:14 AM,-18.4,-23.8,76,30.24,6.0,NE,5.8,-,0.00,,Mostly Cloudy,40,2013-03-22 12:14:00
4:25 AM,-16.6,-23.8,70,30.24,9.0,NE,6.9,-,0.00,,Scattered Clouds,40,2013-03-22 12:25:00
4:53 AM,-18.0,-24.0,74,30.24,9.0,NNE,5.8,-,0.00,,Mostly Cloudy,30,2013-03-22 12:53:00
5:53 AM,-18.0,-24.0,74,30.24,10.0,NNE,8.1,-,N/A,,Clear,20,2013-03-22 13:53:00
6:53 AM,-22.0,-27.0,77,30.24,10.0,NE,8.1,-,N/A,,Clear,50,2013-03-22 14:53:00
7:53 AM,-20.9,-26.0,77,30.24,10.0,ENE,3.5,-,N/A,,Clear,70,2013-03-22 15:53:00
8:53 AM,-18.9,-24.0,78,30.24,10.0,Calm,Calm,-,N/A,,Clear,0,2013-03-22 16:53:00
9:26 AM,-18.4,-23.8,76,30.23,3.0,Calm,Calm,-,N/A,,Haze,0,2013-03-22 17:26:00
9:35 AM,-18.4,-22.0,84,30.23,2.0,Calm,Calm,-,N/A,,Partly Cloudy,0,2013-03-22 17:35:00
9:37 AM,-18.4,-22.0,84,30.23,1.0,Calm,Calm,-,N/A,,Mist,0,2013-03-22 17:37:00
9:44 AM,-18.4,-23.8,76,30.23,0.8,Calm,Calm,-,N/A,,Haze,0,2013-03-22 17:44:00
9:46 AM,-18.4,-23.8,76,30.23,1.2,Calm,Calm,-,N/A,,Haze,0,2013-03-22 17:46:00
9:48 AM,-18.4,-23.8,76,30.23,3.0,Calm,Calm,-,N/A,,Haze,0,2013-03-22 17:48:00
9:53 AM,-18.0,-23.1,78,30.23,10.0,Calm,Calm,-,N/A,,Partly Cloudy,0,2013-03-22 17:53:00
10:53 AM,-20.0,-24.0,82,30.22,10.0,Calm,Calm,-,N/A,,Clear,0,2013-03-22 18:53:00
11:53 AM,-18.9,-20.9,91,30.21,10.0,Calm,Calm,-,N/A,,Clear,0,2013-03-22 19:53:00
12:53 PM,-20.0,-22.0,91,30.21,10.0,Calm,Calm,-,N/A,,Clear,0,2013-03-22 20:53:00
1:53 PM,-18.0,-24.0,74,30.20,10.0,SSE,3.5,-,N/A,,Clear,150,2013-03-22 21:53:00
2:53 PM,-16.1,-22.0,74,30.19,10.0,SSE,3.5,-,N/A,,Clear,150,2013-03-22 22:53:00
3:53 PM,-15.0,-20.9,75,30.17,10.0,SSE,4.6,-,N/A,,Clear,150,2013-03-22 23:53:00
4:53 PM,-15.0,-20.0,78,30.14,10.0,South,6.9,-,N/A,,Clear,180,2013-03-23 00:53:00
5:53 PM,-15.0,-20.9,75,30.12,10.0,South,9.2,-,N/A,,Clear,190,2013-03-23 01:53:00
6:53 PM,-15.0,-22.0,71,30.11,10.0,South,10.4,-,N/A,,Clear,190,2013-03-23 02:53:00
7:53 PM,-16.1,-22.0,74,30.09,10.0,South,10.4,-,N/A,,Clear,190,2013-03-23 03:53:00
8:53 PM,-18.0,-24.0,74,30.07,10.0,South,9.2,-,N/A,,Clear,190,2013-03-23 04:53:00
9:53 PM,-20.0,-26.0,74,30.05,10.0,South,11.5,-,N/A,,Scattered Clouds,180,2013-03-23 05:53:00
10:53 PM,-20.9,-27.0,73,30.04,10.0,South,8.1,-,N/A,,Clear,180,2013-03-23 06:53:00
11:53 PM,-22.0,-27.9,74,30.02,10.0,SSE,9.2,-,N/A,,Clear,160,2013-03-23 07:53:00